Powrót do katalogu

GORIZONT 7

AktywnyŁącznośćGEO
NORAD 14160·PAYLOAD·🇷🇺 Russia

Wystrzelony Jun 30, 1983 z Baikonur Cosmodrome

Loading…

TLE

ŚwieżeSource: Space-Track

Epoka: Sep 14, 2026, 14:19 UTC

1 14160U 83066A   26257.59720110 -.00000111  00000-0  00000-0 0  9996
2 14160   9.1644 311.9923 0013364 345.5277  22.6331  0.98347987155638

Śledź GORIZONT 7 w czasie rzeczywistym z AllMySat

Download on the App Store